Temperature
19 18 19 19 19 19 19 19 19 19 19 20 20 20 20 20 20 20 20 20 20 20 20 20 20 20 20 20 20 19 19 19 19 19 19 19 19 19 19 19 18 18 19
19 18 19 19 19 19 19 19 19 19 19 20 20 20 20 20 20 20 20 20 20 20 20 19 19 19 19 19 19 19 19 19 19 19 19 19 19 19 19 19 18 18 19
18 18 19 19 19 19 19 19 19 19 19 19 19 19 20 19 19 19 19 19 19 19 19 19 19 19 19 19 19 19 19 19 19 19 19 18 18 19 19 18 18 18 19
18 18 18 19 19 19 19 19 19 19 19 19 19 19 19 19 19 19 19 19 19 19 19 19 19 19 19 19 19 19 19 19 19 19 18 18 18 18 18 18 18 18 18
18 18 18 19 19 19 19 19 19 19 19 19 19 19 19 19 19 19 19 19 19 19 19 19 19 19 19 19 19 19 19 19 19 18 17 18 18 18 18 18 18 18 18
18 18 18 18 18 18 18 18 18 18 18 18 18 19 19 19 19 19 19 19 19 19 19 19 19 19 19 19 18 18 18 18 18 17 17 17 18 18 18 18 18 18 18
18 18 18 18 18 18 18 18 18 18 18 18 18 18 18 18 19 19 19 19 19 19 19 19 19 18 18 18 18 18 18 18 17 17 17 17 18 18 18 18 18 18 18
18 18 18 18 18 18 18 18 18 18 18 18 18 18 18 18 18 18 18 18 18 19 18 18 18 18 18 18 18 18 18 18 17 17 17 17 18 18 18 18 18 18 18
18 18 18 18 18 18 18 18 18 18 18 18 18 18 18 18 18 18 18 18 18 18 18 18 18 18 18 18 18 18 18 18 17 17 17 17 18 18 18 18 18 18 18
17 17 17 17 17 17 17 17 18 18 17 18 18 18 18 18 18 18 18 18 18 18 18 18 18 18 18 18 18 18 18 18 17 17 17 17 18 18 18 18 18 18 18
17 17 17 17 17 17 17 17 17 17 17 17 17 17 18 17 17 17 17 17 18 18 18 18 18 18 18 18 18 18 18 17 17 17 17 18 18 18 18 18 18 18 18
16 16 16 16 16 17 17 17 17 17 17 17 17 17 17 17 17 17 17 17 18 18 18 18 18 18 18 17 17 18 17 17 17 17 17 18 18 18 18 18 18 18 18
16 16 16 16 16 16 16 16 16 16 17 17 17 17 17 17 17 17 17 17 17 17 17 17 18 17 17 17 17 17 17 17 18 18 17 18 18 18 18 18 18 18 17
15 15 15 15 15 15 15 15 15 16 16 16 16 17 17 17 17 17 17 17 17 17 17 17 17 17 17 17 17 18 18 17 18 18 17 18 18 18 17 17 18 17 17
15 15 14 14 14 14 15 15 15 15 15 16 16 16 16 17 17 17 17 17 17 17 17 17 17 17 17 17 17 18 18 18 18 18 17 18 18 18 18 17 17 17 17
14 14 14 14 14 14 14 14 14 14 15 15 15 15 15 16 16 16 17 17 17 17 17 17 17 17 17 17 17 17 17 18 18 18 17 17 18 18 18 17 17 17 17
14 14 13 13 13 13 13 13 14 14 14 14 14 15 15 15 15 16 16 17 17 17 17 17 17 17 17 17 17 17 17 17 17 18 18 17 17 18 18 17 17 17 17
14 14 13 13 13 13 13 13 13 13 13 14 14 14 14 14 15 15 16 16 16 17 17 17 17 17 17 17 17 17 17 17 17 18 18 18 17 17 17 18 17 17 17
14 13 13 13 12 12 12 13 13 13 13 13 13 13 14 14 14 15 15 15 16 16 16 17 17 17 17 17 17 17 17 17 17 17 18 18 18 17 17 17 17 17 17
13 13 13 12 12 12 12 13 13 13 13 13 13 13 14 14 14 14 14 15 15 16 16 16 16 17 17 17 17 17 17 17 17 17 18 18 18 18 18 17 17 17 17
14 13 13 12 12 12 12 12 12 12 12 12 12 13 13 13 14 14 14 14 15 15 15 16 16 16 16 16 16 16 16 17 17 17 17 18 18 18 18 17 17 17 17
14 13 13 12 12 12 12 12 12 12 12 12 12 12 13 13 13 14 14 14 14 15 15 15 15 16 16 16 16 16 16 16 17 17 17 17 18 18 18 18 18 17 17
14 13 13 12 12 12 12 11 11 12 12 12 12 12 12 13 13 13 14 14 14 14 14 15 15 15 15 16 16 16 16 16 17 17 17 17 18 18 18 18 18 18 17
14 13 13 12 12 11 11 11 11 11 12 11 12 12 12 12 13 13 13 14 14 14 14 14 15 15 15 15 15 15 16 16 16 17 17 17 18 18 18 18 18 18 17
13 13 12 12 12 11 11 11 11 11 11 11 11 12 12 12 12 13 13 13 13 14 14 14 14 15 15 15 15 15 15 15 16 16 16 17 17 17 18 18 18 18 17
13 13 12 12 11 11 11 11 11 11 11 11 11 11 12 12 12 12 12 13 13 13 13 14 14 14 15 15 15 15 15 15 15 15 16 16 17 17 17 17 17 17 17
Wind_Speed
7 9 11 10 10 9 9 9 9 9 9 9 9 9 9 8 7 6 5 4 4 4 3 3 3 4 4 4 5 5 5 6 6 6 6 6 6 6 6 5 3 8 9
6 9 10 9 9 8 8 8 8 9 8 8 9 9 8 7 7 6 5 4 4 3 3 3 3 3 3 3 3 4 4 5 5 5 4 5 6 5 5 4 5 8 7
6 8 9 8 8 8 8 7 8 8 8 9 8 8 8 7 7 6 6 5 4 4 3 3 2 2 2 2 2 2 3 3 3 3 2 3 6 6 4 5 5 6 7
4 5 6 7 6 7 7 7 8 8 8 9 9 9 8 8 7 7 6 6 5 4 4 3 3 3 3 2 2 1 2 2 2 3 2 3 4 7 4 4 4 5 5
3 3 3 2 3 5 6 7 8 8 8 9 9 9 9 9 8 8 7 7 6 6 5 4 4 4 3 3 2 1 2 2 2 5 2 2 3 6 3 3 4 4 5
3 3 4 4 3 3 4 6 7 8 9 9 10 10 10 10 10 9 9 8 8 7 6 5 5 4 4 3 3 2 2 2 5 1 1 1 3 5 3 3 3 4 4
5 6 7 10 9 8 7 6 6 7 8 9 10 10 10 11 11 10 10 10 9 8 8 7 6 5 5 4 3 3 3 3 4 1 2 1 4 3 2 2 3 3 4
8 8 8 10 10 10 10 9 8 8 8 9 10 11 11 11 12 12 11 11 10 10 9 8 7 6 6 5 4 4 4 6 4 3 2 2 3 2 2 2 2 3 3
8 8 8 9 8 9 10 11 10 10 9 9 10 10 11 11 12 12 12 12 12 11 10 9 8 8 7 6 5 5 5 5 5 4 3 3 4 3 2 2 2 3 3
8 8 7 8 8 8 7 8 10 9 9 9 9 9 10 11 12 13 13 13 12 12 11 11 10 9 8 7 6 6 5 7 8 5 4 4 4 3 3 3 3 3 3
8 8 7 6 7 7 7 7 8 8 8 8 7 8 9 10 11 11 13 11 12 12 12 12 11 10 9 9 8 7 8 9 7 6 4 5 4 4 4 3 4 3 3
9 8 7 7 7 7 6 5 5 6 6 6 6 7 7 8 9 10 9 10 12 13 12 13 11 11 12 11 11 10 10 10 8 7 5 5 5 5 5 5 5 5 4
8 8 9 8 8 7 6 5 5 5 5 5 5 6 7 8 9 9 8 9 12 13 12 12 12 12 11 9 7 10 9 8 7 7 6 7 6 6 7 6 6 6 6
9 9 9 9 9 9 8 7 6 5 5 5 5 6 5 4 6 7 7 8 9 9 9 9 8 10 10 10 10 10 9 9 8 7 5 7 6 7 8 7 7 7 7
9 10 10 10 10 10 8 7 7 6 7 7 6 6 6 5 6 6 6 6 8 9 8 7 8 8 9 9 10 10 10 10 10 9 6 8 7 8 9 9 9 8 8
10 11 10 11 10 10 8 8 7 8 7 8 7 7 7 7 6 6 7 6 6 8 8 7 8 8 8 7 9 10 10 10 11 10 8 9 11 10 9 10 10 10 9
10 11 11 10 10 10 10 9 8 8 8 8 8 9 8 8 8 7 7 6 6 7 8 7 8 7 8 8 10 10 9 10 10 11 10 8 10 13 12 11 11 11 11
10 10 10 9 10 10 9 9 8 8 8 8 8 8 9 9 9 7 7 7 6 7 5 6 6 7 8 8 8 8 8 8 11 11 10 10 10 9 13 14 12 11 11
9 10 10 10 10 10 9 8 7 7 7 7 7 7 8 9 9 8 7 7 7 6 6 7 7 7 7 7 7 7 7 8 10 10 12 12 11 10 10 14 14 12 11
8 9 9 9 10 10 8 8 6 6 6 6 6 6 8 8 8 8 7 8 7 6 6 7 8 8 7 6 7 7 7 8 8 9 11 10 11 12 11 11 12 13 14
8 9 9 10 10 9 8 8 7 7 6 6 6 7 8 8 8 8 7 7 7 7 7 8 8 9 8 6 5 6 7 8 10 9 10 10 11 11 12 12 11 10 12
8 8 9 9 9 9 7 7 7 7 6 6 6 7 7 7 7 7 7 7 7 7 8 9 9 7 7 8 6 5 6 7 9 11 10 10 12 10 12 13 13 12 10
7 8 8 9 9 8 8 7 7 6 6 5 7 7 8 8 7 7 7 7 7 8 8 8 9 10 9 9 9 6 5 7 5 7 11 12 12 10 11 12 13 14 13
7 7 8 8 8 8 8 7 8 7 7 8 7 7 8 8 8 7 7 7 7 7 8 9 9 9 9 8 8 9 8 4 4 5 6 11 13 13 13 11 12 13 13
7 6 7 7 7 8 7 7 7 7 7 7 8 9 8 7 7 7 7 6 7 7 8 8 9 9 9 9 8 7 8 6 7 5 6 7 9 11 12 12 12 11 13
5 5 5 6 6 7 7 7 7 8 8 9 9 9 8 7 6 8 7 6 7 6 7 8 9 10 10 10 9 9 8 7 8 7 7 7 7 8 11 10 11 11 12
Wind_Direction
153 154 146 165 163 161 158 158 159 160 158 157 158 160 162 162 165 165 162 161 155 149 141 132 123 117 105 98 91 90 91 88 87 90 91 93 95 98 99 104 127 102 96
145 152 146 167 168 168 168 169 172 172 171 170 170 171 172 174 176 178 179 179 176 170 166 160 147 136 124 114 103 96 91 92 89 86 98 119 106 98 101 88 38 86 100
147 151 158 168 175 178 182 185 186 186 184 182 183 184 186 187 189 193 198 199 196 191 187 185 176 163 155 140 119 104 98 99 99 101 235 131 114 105 104 103 94 102 105
145 157 159 153 181 188 196 199 199 200 199 197 197 197 198 200 202 205 208 207 210 209 207 206 206 194 181 167 147 127 116 106 122 230 219 84 104 105 110 116 117 116 114
125 139 116 148 200 207 212 214 213 214 213 211 209 207 207 208 209 211 215 217 219 219 219 218 219 211 201 193 187 176 152 135 181 245 75 81 85 102 111 117 122 119 121
83 73 61 33 350 291 259 243 235 232 229 226 222 219 219 218 217 218 220 223 224 224 224 224 226 224 217 210 208 200 183 183 226 186 121 116 98 105 115 121 126 129 127
49 40 40 35 21 6 343 309 280 262 249 244 239 233 230 229 225 223 225 226 226 229 228 227 231 231 228 220 218 214 205 210 244 185 184 142 90 102 136 144 145 148 137
41 34 30 33 23 13 2 349 332 304 280 265 256 249 244 240 236 231 229 228 228 230 231 229 230 234 234 229 227 223 212 238 218 207 194 168 103 145 150 156 156 156 151
42 37 26 16 13 11 2 357 348 331 309 288 275 266 257 251 246 240 235 232 231 231 232 231 230 233 236 234 232 228 224 246 254 227 201 174 135 183 172 169 169 160 145
45 35 27 15 6 0 352 353 348 341 327 310 295 285 276 264 253 247 242 233 233 233 232 232 230 232 233 233 233 231 227 231 236 225 216 153 150 199 185 182 176 163 149
35 27 22 9 359 352 342 343 338 334 327 315 295 285 281 271 263 251 247 238 234 235 234 233 231 230 231 222 225 228 229 233 220 231 222 129 181 207 197 191 179 164 154
22 15 10 358 349 342 333 328 322 312 308 304 296 289 278 269 265 263 264 251 245 241 237 234 232 229 231 224 203 208 228 224 225 222 192 155 205 209 202 196 188 176 166
8 4 358 351 345 338 326 313 305 296 291 288 291 290 284 277 264 256 254 248 243 238 235 222 222 229 228 231 230 218 226 227 222 220 185 164 207 207 201 197 195 186 182
1 355 349 342 336 332 326 317 299 294 291 285 277 280 284 276 264 256 247 249 249 242 236 228 227 229 229 230 229 232 223 226 226 219 185 168 208 210 202 199 197 194 192
355 350 348 339 336 332 326 313 303 299 296 291 285 277 275 273 264 255 252 248 251 248 239 232 229 232 234 236 235 235 232 226 229 221 194 175 205 212 206 202 201 198 195
351 348 346 339 336 330 322 314 310 303 294 289 284 280 275 272 271 265 254 252 253 253 251 243 234 228 228 230 235 235 239 232 230 223 218 191 197 207 209 206 205 201 198
346 345 348 339 338 333 326 319 311 304 301 295 289 283 275 269 268 267 264 254 251 255 250 244 238 232 226 222 227 234 233 236 234 225 218 216 203 199 205 208 208 205 203
346 347 347 344 341 339 333 320 311 307 307 300 294 288 283 276 270 269 265 260 251 250 247 239 232 224 224 225 224 225 229 224 233 231 222 215 215 205 196 201 204 206 205
343 344 347 347 343 342 337 326 318 314 310 306 303 299 294 287 279 270 267 265 255 248 244 241 228 224 223 225 227 227 236 232 230 227 226 221 212 210 205 182 196 204 206
340 342 347 345 345 343 341 336 334 328 324 321 316 313 309 298 289 281 270 263 258 248 241 239 234 224 226 225 231 229 226 235 234 233 235 228 221 212 211 191 193 201 204
344 346 348 346 348 347 346 342 339 338 334 334 329 328 318 308 300 288 280 273 261 254 248 242 237 230 224 216 224 231 231 233 236 231 234 232 225 218 211 204 205 198 194
344 346 346 350 349 349 347 336 330 329 326 332 332 331 329 319 309 296 284 276 266 259 253 247 238 234 227 209 209 213 224 224 231 229 225 229 230 214 218 213 205 203 204
343 345 346 347 346 349 344 340 337 336 329 343 343 340 335 327 317 304 293 283 272 261 252 245 239 232 228 217 214 210 213 219 210 219 221 221 227 220 215 219 214 205 205
341 341 341 346 346 347 342 345 345 342 342 339 335 334 331 330 327 320 305 291 279 266 258 249 241 240 235 226 219 224 233 232 208 208 216 223 223 221 219 215 218 214 207
333 333 336 340 347 350 347 345 338 343 341 335 336 338 336 335 334 332 322 307 293 275 265 258 249 241 237 232 223 218 222 226 229 225 213 210 217 221 220 219 214 215 211
323 325 330 335 344 348 345 343 344 344 340 340 342 342 339 337 337 341 329 317 304 290 273 262 254 245 240 237 232 223 216 211 213 216 222 214 212 215 217 219 219 213 211
Height
1551 1551 1551 1552 1554 1555 1556 1557 1558 1559 1559 1560 1560 1561 1561 1561 1561 1561 1561 1561 1561 1561 1561 1561 1560 1560 1560 1559 1559 1558 1558 1558 1557 1556 1556 1555 1555 1555 1554 1554 1555 1555 1554
1552 1552 1552 1554 1555 1556 1557 1558 1559 1559 1560 1560 1560 1561 1561 1561 1561 1561 1561 1561 1561 1561 1561 1561 1561 1560 1560 1560 1560 1559 1559 1558 1558 1558 1557 1557 1556 1556 1555 1555 1555 1556 1555
1553 1554 1554 1555 1556 1557 1558 1559 1559 1559 1560 1560 1561 1561 1561 1561 1561 1561 1561 1561 1561 1561 1561 1561 1561 1561 1560 1560 1560 1560 1560 1559 1559 1559 1558 1559 1558 1556 1556 1556 1556 1556 1556
1554 1555 1556 1556 1556 1557 1558 1559 1559 1559 1560 1560 1560 1560 1561 1561 1561 1561 1561 1561 1561 1561 1561 1561 1561 1561 1560 1560 1560 1560 1560 1560 1560 1559 1560 1560 1559 1557 1557 1557 1557 1557 1557
1555 1556 1556 1556 1557 1557 1558 1558 1559 1559 1559 1560 1560 1560 1560 1560 1560 1560 1560 1560 1560 1560 1560 1560 1560 1560 1560 1560 1560 1560 1561 1560 1560 1560 1561 1560 1559 1558 1558 1558 1558 1558 1558
1556 1556 1556 1556 1556 1557 1557 1558 1558 1558 1558 1559 1559 1559 1559 1559 1559 1559 1559 1559 1559 1559 1559 1559 1560 1560 1560 1560 1560 1560 1561 1560 1560 1561 1561 1560 1560 1559 1558 1558 1558 1558 1558
1556 1556 1556 1555 1556 1556 1556 1556 1557 1557 1557 1557 1557 1558 1558 1558 1557 1558 1558 1558 1558 1558 1558 1559 1559 1559 1559 1559 1560 1560 1560 1560 1561 1561 1561 1560 1560 1559 1559 1559 1559 1559 1559
1555 1555 1555 1555 1555 1555 1555 1555 1555 1555 1555 1555 1555 1555 1556 1556 1556 1556 1556 1556 1557 1557 1557 1557 1557 1558 1558 1558 1559 1559 1560 1560 1561 1562 1561 1561 1560 1559 1559 1559 1559 1560 1560
1555 1555 1554 1554 1554 1553 1553 1553 1553 1553 1553 1553 1553 1553 1553 1554 1554 1554 1554 1554 1555 1555 1555 1556 1556 1556 1557 1557 1558 1558 1559 1559 1561 1561 1561 1561 1560 1559 1559 1559 1559 1560 1560
1556 1555 1554 1553 1553 1552 1551 1551 1551 1550 1550 1550 1550 1550 1551 1551 1551 1551 1552 1552 1552 1553 1553 1554 1555 1555 1555 1556 1556 1557 1558 1558 1560 1561 1561 1561 1560 1559 1559 1559 1560 1560 1560
1556 1555 1554 1552 1551 1550 1549 1548 1548 1548 1548 1548 1548 1548 1548 1548 1549 1549 1549 1550 1550 1551 1551 1552 1553 1553 1553 1554 1555 1555 1557 1558 1559 1560 1560 1559 1559 1559 1559 1559 1560 1560 1560
1557 1555 1554 1552 1550 1549 1547 1547 1546 1545 1545 1545 1545 1545 1545 1545 1545 1546 1546 1547 1547 1548 1549 1549 1550 1551 1551 1553 1554 1554 1556 1557 1558 1559 1559 1558 1558 1559 1559 1559 1559 1560 1560
1557 1555 1553 1551 1550 1548 1546 1545 1544 1543 1542 1541 1541 1541 1541 1541 1542 1542 1543 1543 1544 1545 1546 1546 1547 1548 1550 1552 1553 1554 1555 1556 1557 1558 1558 1557 1557 1558 1558 1559 1559 1559 1560
1556 1554 1552 1550 1548 1547 1545 1543 1542 1541 1539 1539 1538 1537 1537 1537 1537 1538 1539 1540 1541 1541 1542 1543 1544 1546 1548 1549 1550 1552 1553 1553 1555 1556 1556 1555 1556 1557 1557 1558 1558 1559 1560
1555 1553 1550 1548 1546 1544 1542 1540 1539 1538 1537 1536 1534 1533 1533 1533 1533 1534 1535 1536 1537 1538 1538 1539 1541 1543 1545 1546 1548 1550 1551 1552 1553 1554 1554 1554 1555 1555 1556 1557 1557 1558 1559
1554 1552 1549 1546 1544 1541 1540 1538 1537 1535 1533 1532 1531 1531 1530 1530 1530 1530 1531 1532 1533 1534 1535 1536 1537 1539 1540 1542 1544 1546 1548 1549 1550 1552 1552 1553 1553 1554 1555 1555 1556 1557 1558
1553 1550 1547 1544 1542 1539 1537 1535 1533 1532 1531 1529 1528 1527 1527 1526 1526 1526 1527 1527 1528 1529 1531 1532 1533 1535 1537 1538 1540 1542 1544 1546 1547 1549 1550 1551 1552 1552 1553 1554 1555 1556 1557
1552 1549 1546 1543 1540 1537 1534 1532 1531 1529 1527 1526 1525 1524 1523 1523 1522 1522 1522 1523 1524 1525 1526 1528 1529 1531 1532 1534 1536 1538 1540 1542 1544 1546 1548 1549 1551 1552 1551 1552 1553 1554 1555
1551 1548 1545 1542 1539 1536 1533 1530 1528 1526 1524 1523 1522 1520 1519 1519 1519 1519 1519 1519 1520 1521 1522 1524 1525 1527 1528 1530 1532 1534 1536 1539 1541 1543 1545 1547 1548 1549 1551 1550 1551 1552 1553
1550 1547 1545 1541 1538 1535 1532 1529 1527 1525 1523 1521 1519 1517 1516 1515 1515 1515 1515 1515 1516 1517 1518 1519 1520 1522 1524 1526 1528 1530 1532 1534 1537 1539 1542 1544 1546 1547 1549 1549 1549 1550 1551
1549 1547 1544 1541 1538 1534 1531 1528 1525 1523 1521 1519 1516 1514 1513 1512 1511 1511 1511 1512 1512 1512 1513 1514 1516 1518 1519 1522 1524 1526 1528 1530 1532 1535 1537 1540 1542 1544 1546 1547 1548 1549 1549
1548 1546 1543 1540 1537 1533 1530 1527 1524 1522 1519 1517 1515 1512 1511 1509 1508 1508 1507 1507 1508 1508 1508 1510 1511 1513 1515 1517 1519 1522 1524 1526 1527 1530 1532 1535 1538 1540 1542 1544 1546 1547 1548
1547 1545 1542 1539 1536 1533 1529 1527 1524 1521 1519 1517 1514 1511 1509 1507 1505 1504 1504 1503 1503 1504 1505 1505 1507 1508 1510 1512 1514 1517 1518 1519 1521 1524 1527 1530 1533 1535 1538 1540 1542 1544 1546
1546 1544 1541 1538 1535 1532 1529 1526 1524 1521 1518 1515 1512 1510 1507 1505 1503 1501 1500 1500 1499 1500 1500 1501 1502 1503 1505 1507 1509 1511 1514 1515 1517 1519 1522 1524 1528 1531 1533 1536 1538 1541 1542
1545 1542 1540 1537 1534 1531 1528 1525 1523 1520 1518 1515 1512 1509 1506 1503 1501 1499 1498 1496 1496 1496 1496 1496 1497 1498 1500 1501 1503 1505 1508 1510 1512 1515 1516 1519 1521 1525 1528 1531 1533 1536 1538
1544 1541 1539 1536 1533 1530 1527 1525 1523 1520 1517 1514 1511 1508 1505 1502 1500 1498 1496 1494 1493 1492 1492 1492 1493 1494 1495 1497 1498 1500 1502 1504 1506 1509 1511 1513 1515 1519 1522 1525 1528 1531 1533